Simultaneous Nadir Overpasses (SNOs) Predictions

Prediction of SNOs between AQUA and METOP-B Satellite Orbit:

Table of predicted SNOs for the next 14.0 days since TLE Epoch: 8/10/2024
Index Date (AQUA) Time (AQUA) Lat,Lon (AQUA) SZA (AQUA ) Date (METOP-B) Time (METOP-B) Lat,Lon (METOP-B) SZA (METOP-B ) Distance(km) Time Diff (sec)
1 08/10/2024 15:22:20 -76.03, 127.21 119.31 08/10/2024 15:21:09 -76.05, 127.14 119.28 3.03 71
2 08/10/2024 16:11:44 76.12, -65.42 60.80 08/10/2024 16:11:48 76.09, -65.37 60.77 3.13 4
3 08/10/2024 17:01:12 -76.51, 100.95 118.78 08/10/2024 17:02:19 -76.54, 103.51 118.80 66.53 67
4 08/13/2024 06:42:54 76.10, 76.88 61.56 08/13/2024 06:42:09 76.08, 76.97 61.55 3.26 45
5 08/13/2024 07:32:15 -76.11,-115.46 118.43 08/13/2024 07:32:50 -76.12,-115.59 118.42 3.47 35
6 08/15/2024 22:03:24 -76.11, 26.79 117.61 08/15/2024 22:03:12 -76.09, 26.71 117.63 3.27 12
7 08/15/2024 22:52:47 76.16,-165.72 62.46 08/15/2024 22:53:50 76.18,-165.66 62.47 2.33 63
8 08/18/2024 12:34:30 -76.09, 169.14 116.81 08/18/2024 12:33:33 -76.09, 169.10 116.80 1.05 57
9 08/18/2024 13:23:53 76.14, -23.38 63.27 08/18/2024 13:24:12 76.13, -23.43 63.26 1.80 19
10 08/21/2024 03:54:57 76.14, 118.90 64.13 08/21/2024 03:54:33 76.11, 118.90 64.10 3.37 24
11 08/21/2024 04:44:19 -76.19, -73.60 115.82 08/21/2024 04:45:13 -76.20, -73.49 115.82 3.15 54
12 08/23/2024 18:25:57 76.12, -98.72 64.98 08/23/2024 18:24:52 76.12, -98.66 64.99 1.82 65
13 08/23/2024 19:15:19 -76.17, 68.77 114.96 08/23/2024 19:15:33 -76.16, 68.79 114.97 0.73 14



Historial Predications of SNOs between AQUA and METOP-B
